Rome Ciampino, Italy

10:45 AM CET on November 20, 2017 (GMT +0100)
Ciampino

Weather History for LIRA - September, 2012

Change the Weather History Date:

Saturday, September 29, 2012

  Actual Average Record
Temperature  
Mean Temperature 78 °F -  
Max Temperature 89 °F 71 °F 89 °F (2012)
Min Temperature 66 °F 51 °F 48 °F (2002)
Cooling Degree Days 12    
Growing Degree Days 28 (Base 50)    
Moisture  
Dew Point 55 °F    
Average Humidity 49    
Maximum Humidity 83    
Minimum Humidity 22    
Precipitation  
Precipitation 0.00 in 0.12 in - ()
Sea Level Pressure  
Sea Level Pressure 29.94 in    
Wind  
Wind Speed 8 mph ()    
Max Wind Speed 24 mph    
Max Gust Speed 39 mph    
Visibility 6.2 miles    
Events      
Averages and records for this station are not official NWS values.
T = Trace of Precipitation, MM = Missing Value Source: Averaged Metar Reports

Daily Weather History Graph

Daily Weather History Graph

Search for Another Location

Airport or City:

Trip Planner

Search our weather history database for the weather conditions in past years. The results will help you decide how hot, cold, wet, or windy it might be!

Date:

Astronomy

Sep. 29, 2012 Rise Set
Actual Time 7:04 AM CEST 6:54 PM CEST
Civil Twilight 6:37 AM CEST 7:22 PM CEST
Nautical Twilight 6:04 AM CEST 7:54 PM CEST
Astronomical Twilight 5:31 AM CEST 8:27 PM CEST
Moon 6:17 PM CEST (9/29) 6:18 AM CEST (9/29)
Length of Visible Light 12h 45m
Length of Day
11h 49m
Waxing Gibbous, 99% of the Moon is Illuminated
Sep 29
Waxing Gibbous
Sep 30
Full
Oct 8
Last Quarter
Oct 15
New
Oct 22
First Quarter

Hourly Weather History & Observations

Time (CEST) Temp. Heat Index Dew Point Humidity Pressure Visibility Wind Dir Wind Speed Gust Speed Precip Events Conditions
12:15 AM 69.8 °F - 57.2 °F 64% 29.98 in - WSW 2.3 mph - N/A   Clear
12:45 AM 68.0 °F - 57.2 °F 68% 29.98 in - Calm Calm - N/A   Clear
1:15 AM 68.0 °F - 57.2 °F 68% 29.98 in - NE 1.2 mph - N/A   Clear
1:45 AM 68.0 °F - 57.2 °F 68% 29.98 in - Calm Calm - N/A   Clear
2:15 AM 68.0 °F - 57.2 °F 68% 29.98 in - NW 1.2 mph - N/A   Clear
2:45 AM 66.2 °F - 55.4 °F 68% 29.98 in - Calm Calm - N/A   Clear
3:15 AM 68.0 °F - 57.2 °F 68% 29.95 in - NNW 3.5 mph - N/A   Clear
3:45 AM 68.0 °F - 53.6 °F 60% 29.95 in - North 1.2 mph - N/A   Clear
4:15 AM 68.0 °F - 53.6 °F 60% 29.95 in - North 1.2 mph - N/A   Clear
4:45 AM 68.0 °F - 53.6 °F 60% 29.95 in - NNW 3.5 mph - N/A   Clear
5:15 AM 68.0 °F - 53.6 °F 60% 29.95 in - NW 3.5 mph - N/A   Clear
5:45 AM 68.0 °F - 53.6 °F 60% 29.95 in - NE 1.2 mph - N/A   Clear
6:15 AM 68.0 °F - 51.8 °F 56% 29.92 in 6.2 mi North 3.5 mph - N/A   Partly Cloudy
6:45 AM 68.0 °F - 53.6 °F 60% 29.92 in 6.2 mi NW 3.5 mph - N/A   Partly Cloudy
7:15 AM 68.0 °F - 53.6 °F 60% 29.92 in 6.2 mi NNE 1.2 mph - N/A   Partly Cloudy
7:45 AM 78.8 °F - 48.2 °F 34% 29.92 in 6.2 mi SE 10.4 mph - N/A   Partly Cloudy
8:15 AM 82.4 °F - 46.4 °F 28% 29.95 in 6.2 mi SE 15.0 mph - N/A   Scattered Clouds
8:45 AM 84.2 °F - 46.4 °F 27% 29.95 in 6.2 mi SSE 16.1 mph - N/A   Scattered Clouds
9:15 AM 84.2 °F - 46.4 °F 27% 29.95 in 6.2 mi SE 19.6 mph - N/A   Mostly Cloudy
9:45 AM 86.0 °F - 48.2 °F 27% 29.95 in 6.2 mi SE 21.9 mph 33.4 mph N/A   Mostly Cloudy
10:15 AM 86.0 °F - 50.0 °F 29% 29.95 in 6.2 mi SE 20.7 mph - N/A   Scattered Clouds
10:45 AM 87.8 °F - 48.2 °F 25% 29.95 in 6.2 mi SE 20.7 mph - N/A   Scattered Clouds
11:15 AM 87.8 °F - 48.2 °F 25% 29.95 in 6.2 mi SE 19.6 mph - N/A   Scattered Clouds
11:45 AM 87.8 °F - 46.4 °F 24% 29.95 in 6.2 mi SE 20.7 mph 32.2 mph N/A   Scattered Clouds
12:15 PM 87.8 °F - 46.4 °F 24% 29.95 in 6.2 mi SE 24.2 mph - N/A   Scattered Clouds
12:45 PM 87.8 °F - 46.4 °F 24% 29.95 in 6.2 mi SE 23.0 mph 34.5 mph N/A   Scattered Clouds
1:15 PM 89.6 °F - 48.2 °F 24% 29.95 in 6.2 mi SE 23.0 mph - N/A   Scattered Clouds
1:45 PM 89.6 °F - 48.2 °F 24% 29.95 in 6.2 mi SE 24.2 mph - N/A   Mostly Cloudy
2:15 PM 89.6 °F - 48.2 °F 24% 29.95 in 6.2 mi SSE 24.2 mph 39.1 mph N/A   Scattered Clouds
2:45 PM 89.6 °F - 46.4 °F 22% 29.95 in 6.2 mi SSE 24.2 mph - N/A   Scattered Clouds
3:15 PM 89.6 °F - 46.4 °F 22% 29.95 in 6.2 mi SSE 20.7 mph 32.2 mph N/A   Scattered Clouds
3:45 PM 87.8 °F - 46.4 °F 24% 29.95 in 6.2 mi South 18.4 mph - N/A   Scattered Clouds
4:15 PM 87.8 °F - 46.4 °F 24% 29.95 in 6.2 mi South 20.7 mph - N/A   Scattered Clouds
4:45 PM 84.2 °F - 51.8 °F 33% 29.95 in 6.2 mi SSE 15.0 mph - N/A   Scattered Clouds
5:15 PM 84.2 °F - 51.8 °F 33% 29.92 in 6.2 mi SSE 15.0 mph - N/A   Scattered Clouds
5:45 PM 82.4 °F - 51.8 °F 35% 29.95 in 6.2 mi South 13.8 mph - N/A   Scattered Clouds
6:15 PM 82.4 °F 81.7 °F 55.4 °F 39% 29.89 in 6.2 mi South 15.0 mph - N/A   Scattered Clouds
6:45 PM 80.6 °F 80.8 °F 57.2 °F 45% 29.89 in 6.2 mi South 13.8 mph - N/A   Scattered Clouds
7:15 PM 78.8 °F - 62.6 °F 57% 29.89 in 6.2 mi South 11.5 mph - N/A   Mostly Cloudy
7:45 PM 77.0 °F - 64.4 °F 65% 29.92 in 6.2 mi South 12.7 mph - N/A   Mostly Cloudy
8:15 PM 77.0 °F - 66.2 °F 69% 29.92 in 6.2 mi South 11.5 mph - N/A   Scattered Clouds
8:45 PM 77.0 °F - 68.0 °F 74% 29.92 in 6.2 mi SSE 12.7 mph - N/A   Scattered Clouds
9:15 PM 77.0 °F - 68.0 °F 74% 29.92 in 6.2 mi SSE 12.7 mph - N/A   Scattered Clouds
9:45 PM 75.2 °F - 69.8 °F 83% 29.95 in 6.2 mi South 8.1 mph - N/A   Scattered Clouds
10:15 PM 75.2 °F - 69.8 °F 83% 29.95 in 6.2 mi South 6.9 mph - N/A   Mostly Cloudy
10:45 PM 75.2 °F - 69.8 °F 83% 29.95 in 6.2 mi SSE 8.1 mph - N/A   Scattered Clouds
11:15 PM 75.2 °F - 69.8 °F 83% 29.95 in 6.2 mi South 6.9 mph - N/A   Scattered Clouds
11:45 PM 75.2 °F - 69.8 °F 83% 29.95 in 6.2 mi South 6.9 mph - N/A   Scattered Clouds